Wetterdaten: aktuell Dienstag, 12.11.2019 09:55
Datum Zeit Temp. A. Feuchte A. Luftdruck Regen Wind Richtung Richtung Windben
12.11.2019 09:55 5,9 C 71 % 1009,8 hPa 0,0 l/m 0,0 km/h S-SW 195 0,0 km/h
12.11.2019 09:50 5,9 C 71 % 1010,0 hPa 0,0 l/m 0,0 km/h S-SW 192 0,0 km/h
12.11.2019 09:45 5,9 C 71 % 1010,1 hPa 0,0 l/m 0,0 km/h S 181 0,0 km/h
12.11.2019 09:44 5,9 C 71 % 1010,1 hPa 0,0 l/m 0,0 km/h S 181 0,0 km/h
12.11.2019 09:40 5,9 C 71 % 1009,9 hPa 0,0 l/m 0,0 km/h S 171 0,0 km/h
12.11.2019 09:35 6,0 C 71 % 1010,0 hPa 0,0 l/m 0,0 km/h S 179 0,0 km/h
12.11.2019 09:30 6,0 C 71 % 1009,9 hPa 0,0 l/m 0,0 km/h S-SO 156 0,0 km/h
12.11.2019 09:29 6,0 C 71 % 1009,9 hPa 0,0 l/m 0,0 km/h S-SO 156 0,0 km/h
12.11.2019 09:25 6,0 C 71 % 1009,9 hPa 0,0 l/m 0,0 km/h S-SO 156 0,0 km/h
12.11.2019 09:20 5,9 C 71 % 1010,0 hPa 0,2 l/m 0,0 km/h S-SO 156 0,0 km/h
12.11.2019 09:15 5,9 C 71 % 1010,0 hPa 0,0 l/m 0,0 km/h NO 34 0,0 km/h
12.11.2019 09:09 5,8 C 71 % 1010,2 hPa 0,0 l/m 0,0 km/h NW 316 0,0 km/h
12.11.2019 09:05 5,8 C 71 % 1010,2 hPa 0,0 l/m 0,0 km/h NW 316 0,0 km/h
12.11.2019 09:00 5,8 C 71 % 1010,4 hPa 0,0 l/m 0,0 km/h NW 316 0,0 km/h
12.11.2019 08:59 5,8 C 71 % 1010,4 hPa 0,0 l/m 0,0 km/h NW 316 0,0 km/h
12.11.2019 08:55 5,8 C 71 % 1010,5 hPa 0,0 l/m 0,0 km/h NW 316 0,0 km/h
12.11.2019 08:50 5,7 C 71 % 1010,6 hPa 0,0 l/m 0,0 km/h NW 316 0,0 km/h
12.11.2019 08:44 5,7 C 71 % 1010,6 hPa 0,2 l/m 0,0 km/h NW 316 0,0 km/h
12.11.2019 08:40 5,7 C 71 % 1010,6 hPa 0,0 l/m 0,0 km/h NW 316 0,0 km/h
12.11.2019 08:39 5,7 C 71 % 1010,6 hPa 0,0 l/m 0,0 km/h NW 316 0,0 km/h
12.11.2019 08:35 5,7 C 71 % 1010,6 hPa 0,2 l/m 0,0 km/h NW 316 0,0 km/h
12.11.2019 08:30 5,7 C 71 % 1010,7 hPa 0,0 l/m 0,0 km/h SW 228 0,0 km/h
12.11.2019 08:29 5,7 C 71 % 1010,7 hPa 0,0 l/m 0,0 km/h SW 228 0,0 km/h
12.11.2019 08:25 5,7 C 71 % 1010,8 hPa 0,2 l/m 0,0 km/h SW 228 0,0 km/h
12.11.2019 08:20 5,7 C 71 % 1011,0 hPa 0,0 l/m 0,0 km/h SW 228 0,0 km/h
12.11.2019 08:15 5,7 C 71 % 1011,0 hPa 0,0 l/m 0,0 km/h SW 228 0,0 km/h
12.11.2019 08:10 5,7 C 71 % 1010,9 hPa 0,2 l/m 0,0 km/h SW 228 0,0 km/h
12.11.2019 08:05 5,7 C 71 % 1011,0 hPa 0,0 l/m 0,0 km/h SW 228 0,0 km/h
12.11.2019 07:59 5,7 C 71 % 1011,0 hPa 0,0 l/m 0,0 km/h SW 228 0,0 km/h
12.11.2019 07:54 5,7 C 71 % 1011,0 hPa 0,0 l/m 0,0 km/h SW 228 0,0 km/h
12.11.2019 07:50 5,7 C 71 % 1011,1 hPa 0,0 l/m 0,0 km/h SW 228 0,0 km/h
12.11.2019 07:45 5,7 C 71 % 1011,0 hPa 0,0 l/m 0,0 km/h SW 228 0,0 km/h
12.11.2019 07:40 5,7 C 71 % 1011,0 hPa 0,0 l/m 0,0 km/h SW 228 0,0 km/h
12.11.2019 07:35 5,7 C 71 % 1011,0 hPa 0,0 l/m 0,0 km/h SW 228 0,0 km/h
12.11.2019 07:30 5,7 C 71 % 1011,0 hPa 0,0 l/m 0,0 km/h SW 228 0,0 km/h
12.11.2019 07:29 5,6 C 71 % 1011,0 hPa 0,0 l/m 0,0 km/h SW 228 0,0 km/h
12.11.2019 07:25 5,6 C 71 % 1011,0 hPa 0,0 l/m 0,0 km/h SW 228 0,0 km/h
12.11.2019 07:20 5,6 C 71 % 1011,0 hPa 0,0 l/m 0,0 km/h SW 228 0,0 km/h
12.11.2019 07:19 5,6 C 71 % 1011,0 hPa 0,0 l/m 0,0 km/h SW 228 0,0 km/h
12.11.2019 07:15 5,6 C 71 % 1011,0 hPa 0,0 l/m 0,0 km/h SW 228 0,0 km/h
12.11.2019 07:10 5,6 C 71 % 1011,1 hPa 0,0 l/m 0,0 km/h SW 228 0,0 km/h
12.11.2019 07:05 5,6 C 71 % 1011,0 hPa 0,0 l/m 0,0 km/h SW 228 0,0 km/h
12.11.2019 07:00 5,6 C 71 % 1011,1 hPa 0,0 l/m 0,0 km/h SW 228 0,0 km/h
12.11.2019 06:59 5,6 C 71 % 1011,1 hPa 0,0 l/m 0,0 km/h SW 228 0,0 km/h
12.11.2019 06:55 5,6 C 71 % 1011,2 hPa 0,0 l/m 0,0 km/h SW 228 0,0 km/h
12.11.2019 06:50 5,6 C 71 % 1011,2 hPa 0,0 l/m 0,0 km/h SW 228 0,0 km/h
12.11.2019 06:45 5,6 C 71 % 1011,4 hPa 0,0 l/m 0,0 km/h SW 228 0,0 km/h
12.11.2019 06:40 5,6 C 71 % 1011,4 hPa 0,0 l/m 0,0 km/h SW 228 0,0 km/h
12.11.2019 06:35 5,7 C 71 % 1011,4 hPa 0,0 l/m 0,0 km/h SW 228 0,0 km/h
12.11.2019 06:29 5,7 C 71 % 1011,3 hPa 0,0 l/m 0,0 km/h SW 228 0,0 km/h
12.11.2019 06:25 5,7 C 71 % 1011,4 hPa 0,0 l/m 0,0 km/h SW 228 0,0 km/h
12.11.2019 06:20 5,6 C 71 % 1011,3 hPa 0,0 l/m 0,0 km/h SW 228 0,0 km/h
12.11.2019 06:15 5,6 C 71 % 1011,4 hPa 0,0 l/m 0,0 km/h SW 228 0,0 km/h
12.11.2019 06:14 5,6 C 71 % 1011,4 hPa 0,0 l/m 0,0 km/h SW 228 0,0 km/h
12.11.2019 06:10 5,6 C 71 % 1011,5 hPa 0,0 l/m 0,0 km/h SW 228 0,0 km/h
12.11.2019 06:09 5,6 C 71 % 1011,5 hPa 0,0 l/m 0,0 km/h SW 228 0,0 km/h
12.11.2019 06:05 5,6 C 71 % 1011,3 hPa 0,0 l/m 0,0 km/h SW 228 0,0 km/h
12.11.2019 06:00 5,6 C 71 % 1011,4 hPa 0,0 l/m 0,0 km/h SW 228 0,0 km/h
12.11.2019 05:59 5,6 C 71 % 1011,4 hPa 0,0 l/m 0,0 km/h SW 228 0,0 km/h
12.11.2019 05:55 5,6 C 71 % 1011,3 hPa 0,0 l/m 0,0 km/h SW 228 0,0 km/h
12.11.2019 05:49 5,6 C 71 % 1011,4 hPa 0,0 l/m 0,0 km/h SW 228 0,0 km/h
12.11.2019 05:45 5,6 C 71 % 1011,6 hPa 0,0 l/m 0,0 km/h SW 228 0,0 km/h
12.11.2019 05:44 5,6 C 71 % 1011,7 hPa 0,0 l/m 0,0 km/h SW 228 0,0 km/h
12.11.2019 05:40 5,6 C 71 % 1011,8 hPa 0,0 l/m 0,0 km/h SW 228 0,0 km/h
12.11.2019 05:35 5,6 C 71 % 1011,8 hPa 0,0 l/m 0,0 km/h SW 228 0,0 km/h
12.11.2019 05:30 5,6 C 71 % 1011,8 hPa 0,0 l/m 0,0 km/h SW 228 0,0 km/h
12.11.2019 05:25 5,6 C 71 % 1011,7 hPa 0,0 l/m 0,0 km/h SW 228 0,0 km/h
12.11.2019 05:19 5,6 C 71 % 1011,8 hPa 0,0 l/m 0,0 km/h SW 228 0,0 km/h
12.11.2019 05:15 5,6 C 71 % 1011,9 hPa 0,0 l/m 0,0 km/h SW 228 0,0 km/h
12.11.2019 05:10 5,6 C 71 % 1011,8 hPa 0,0 l/m 0,0 km/h SW 228 0,0 km/h
12.11.2019 05:09 5,6 C 71 % 1011,8 hPa 0,0 l/m 0,0 km/h SW 228 0,0 km/h
12.11.2019 05:05 5,6 C 71 % 1011,9 hPa 0,0 l/m 0,0 km/h SW 228 0,0 km/h
12.11.2019 05:00 5,6 C 71 % 1012,0 hPa 0,0 l/m 0,0 km/h SW 228 0,0 km/h
12.11.2019 04:59 5,6 C 71 % 1012,0 hPa 0,0 l/m 0,0 km/h SW 228 0,0 km/h
12.11.2019 04:55 5,6 C 71 % 1012,0 hPa 0,0 l/m 0,0 km/h SW 228 0,0 km/h
12.11.2019 04:50 5,6 C 71 % 1011,9 hPa 0,0 l/m 0,0 km/h SW 228 0,0 km/h
12.11.2019 04:45 5,6 C 71 % 1011,9 hPa 0,0 l/m 0,0 km/h SW 228 0,0 km/h
12.11.2019 04:40 5,6 C 71 % 1011,9 hPa 0,0 l/m 0,0 km/h SW 228 0,0 km/h
12.11.2019 04:39 5,6 C 71 % 1011,9 hPa 0,0 l/m 0,0 km/h SW 228 0,0 km/h
12.11.2019 04:35 5,6 C 71 % 1012,0 hPa 0,0 l/m 0,0 km/h SW 228 0,0 km/h
12.11.2019 04:30 5,6 C 71 % 1012,1 hPa 0,0 l/m 0,0 km/h SW 228 0,0 km/h
12.11.2019 04:25 5,6 C 71 % 1012,1 hPa 0,2 l/m 0,0 km/h SW 228 0,0 km/h
12.11.2019 04:19 5,6 C 71 % 1012,3 hPa 0,0 l/m 0,0 km/h SW 228 0,0 km/h
12.11.2019 04:15 5,6 C 71 % 1012,3 hPa 0,0 l/m 0,0 km/h SW 228 0,0 km/h
12.11.2019 04:10 5,6 C 71 % 1012,1 hPa 0,0 l/m 0,0 km/h SW 228 0,0 km/h
12.11.2019 04:04 5,6 C 71 % 1011,9 hPa 0,0 l/m 0,0 km/h SW 228 0,0 km/h
12.11.2019 04:00 5,6 C 71 % 1012,1 hPa 0,0 l/m 0,0 km/h SW 228 0,0 km/h
12.11.2019 03:55 5,6 C 71 % 1012,3 hPa 0,0 l/m 0,0 km/h S-SW 210 0,0 km/h
12.11.2019 03:50 5,6 C 71 % 1012,3 hPa 0,0 l/m 0,0 km/h S-SW 208 0,0 km/h
12.11.2019 03:45 5,6 C 71 % 1012,3 hPa 0,0 l/m 0,0 km/h S-SW 192 0,0 km/h
12.11.2019 03:44 5,6 C 71 % 1012,3 hPa 0,0 l/m 0,0 km/h S-SW 192 0,0 km/h
12.11.2019 03:40 5,6 C 71 % 1012,4 hPa 0,0 l/m 0,0 km/h S 190 0,0 km/h
12.11.2019 03:35 5,6 C 71 % 1012,3 hPa 0,0 l/m 0,0 km/h S-SW 198 0,0 km/h
12.11.2019 03:30 5,6 C 71 % 1012,3 hPa 0,0 l/m 0,0 km/h S-SW 198 0,0 km/h
12.11.2019 03:29 5,6 C 71 % 1012,3 hPa 0,0 l/m 0,0 km/h S-SW 198 0,0 km/h
12.11.2019 03:25 5,6 C 71 % 1012,4 hPa 0,0 l/m 0,0 km/h S-SW 196 0,0 km/h
12.11.2019 03:20 5,6 C 71 % 1012,4 hPa 0,0 l/m 0,0 km/h S 184 0,0 km/h
_ Min-Zeit 10:00 02:30 09:55 - 10:00 - - 10:00
Minimum _ 3,2 C 71 % 1009,8 hPa - 0,0 km/h - - 0,0 km/h
_ Max-Zeit 09:25 14:19 10:00 04:25 14:29 - - 14:29
Maximum _ 6,0 C 80 % 1018,7 hPa 0,2 l/m 0,1 km/h
S-SO
- - 3,2 km/h
S
Durchschnitt _ 5,1 C 74 % 1014,5 hPa #1,2 l/m 0,0 km/h N - 0,0 km/h